User: anonymous   Login
Location: Caribou
(46.8667°N, 68.0167°W)
Time: 11:19:25
(UTC-04:00)
Language:

SL-08 RB Rocket - Orbit

View from above orbital plane
View from above orbital plane
View from above satellite
View from above satellite

Ground track
Ground track

The orbit data is extracted from the following two-line orbital elements,

1 26387U 00033D   17295.80400510  .00000144  00000-0  33202-4 0  9997
2 26387  97.9564 356.7284 0025204 292.3610 181.2855 14.68322175926601
Epoch (UTC): 22 October 2017 19:17:46
Eccentricity: 0.0025204
inclination: 97.9564°
perigee height: 648 km
apogee height: 684 km
right ascension of ascending node: 356.7284°
argument of perigee: 292.3610°
revolutions per day: 14.68322175
mean anomaly at epoch: 181.2855°
orbit number at epoch: 92660

The dashed part of the orbit path shows where the satellite is in the earth's shadow,  

DLR